Big Rapids, MI

4:15 AM EDT on August 24, 2019 (GMT -0400)
Roben-Hood

Weather History for KRQB - May, 2019

Change the Weather History Date:

Saturday, May 11, 2019

  Actual Average Record
Temperature  
Mean Temperature 42 °F -  
Max Temperature 53 °F 68 °F 85 °F (1982)
Min Temperature 31 °F 41 °F 30 °F (1977)
Degree Days  
Heating Degree Days 23    
Moisture  
Dew Point 33 °F    
Average Humidity 67    
Maximum Humidity 99    
Minimum Humidity 43    
Precipitation  
Precipitation 0.00 in - - ()
Sea Level Pressure  
Sea Level Pressure 30.12 in    
Wind  
Wind Speed 3 mph (ESE)    
Max Wind Speed 10 mph    
Max Gust Speed -    
Visibility 10 miles    
Events      
Averages and records for this station are not official NWS values.
T = Trace of Precipitation, MM = Missing Value Source: NWS Daily Summary

Daily Weather History Graph

Daily Weather History Graph

Search for Another Location

Airport or City:

Astronomy

May. 11, 2019 Rise Set
Actual Time 6:21 AM EDT 8:55 PM EDT
Civil Twilight 5:48 AM EDT 9:28 PM EDT
Nautical Twilight 5:08 AM EDT 10:09 PM EDT
Astronomical Twilight 4:21 AM EDT 10:56 PM EDT
Moon 12:29 PM EDT (5/11) 2:37 AM EDT (5/11)
Length of Visible Light 15h 39m
Length of Day
14h 34m
Waxing Crescent, 46% of the Moon is Illuminated
May 11
Waxing Crescent
May 11
First Quarter
May 18
Full
May 26
Last Quarter
Jun 3
New

Hourly Weather History & Observations

Time (EDT) Temp. Windchill Dew Point Humidity Pressure Visibility Wind Dir Wind Speed Gust Speed Precip Events Conditions
12:15 AM 37.4 °F - 33.1 °F 84% 30.17 in 10.0 mi Calm Calm - N/A   Clear
12:16 AM 37.4 °F - 33.1 °F 84% 30.17 in 10.0 mi Calm Calm - N/A   Clear
12:35 AM 36.7 °F - 33.3 °F 87% 30.17 in 10.0 mi Calm Calm - N/A   Clear
12:55 AM 36.5 °F 33.9 °F 33.3 °F 88% 30.17 in 10.0 mi West 3.5 mph - N/A   Clear
12:56 AM 36.5 °F - 33.3 °F 88% 30.17 in 10.0 mi Calm Calm - N/A   Clear
1:15 AM 36.1 °F - 33.3 °F 89% 30.17 in 10.0 mi Calm Calm - N/A   Clear
1:16 AM 36.1 °F - 33.3 °F 89% 30.17 in 10.0 mi Calm Calm - N/A   Clear
1:35 AM 35.4 °F - 32.2 °F 88% 30.17 in 10.0 mi Calm Calm - N/A   Clear
1:55 AM 34.7 °F - 32.0 °F 90% 30.16 in 10.0 mi Calm Calm - N/A   Clear
1:56 AM 34.7 °F - 32.0 °F 90% 30.16 in 10.0 mi Calm Calm - N/A   Clear
2:15 AM 34.2 °F - 32.5 °F 94% 30.16 in 10.0 mi Calm Calm - N/A   Clear
2:16 AM 34.2 °F - 32.5 °F 94% 30.16 in 10.0 mi Calm Calm - N/A   Clear
2:35 AM 34.0 °F - 32.2 °F 93% 30.17 in 10.0 mi Calm Calm - N/A   Clear
2:36 AM 33.6 °F - 31.8 °F 93% 30.16 in 10.0 mi Calm Calm - N/A   Clear
2:55 AM 33.3 °F - 32.0 °F 95% 30.16 in 10.0 mi Calm Calm - N/A   Clear
3:15 AM 33.4 °F 30.4 °F 32.0 °F 94% 30.15 in 10.0 mi West 3.5 mph - N/A   Clear
3:35 AM 32.9 °F - 31.8 °F 96% 30.16 in 10.0 mi Calm Calm - N/A   Clear
3:36 AM 32.9 °F - 31.8 °F 96% 30.16 in 10.0 mi Calm Calm - N/A   Clear
3:55 AM 32.4 °F - 31.3 °F 96% 30.16 in 10.0 mi Calm Calm - N/A   Clear
4:15 AM 32.7 °F - 32.0 °F 97% 30.16 in 10.0 mi Calm Calm - N/A   Clear
4:35 AM 32.0 °F - 31.1 °F 96% 30.17 in 10.0 mi Calm Calm - N/A   Clear
4:36 AM 32.0 °F - 31.1 °F 96% 30.17 in 10.0 mi Calm Calm - N/A   Clear
4:55 AM 32.2 °F - 32.0 °F 99% 30.17 in 10.0 mi Calm Calm - N/A   Clear
5:15 AM 32.2 °F - 31.8 °F 99% 30.17 in 10.0 mi Calm Calm - N/A   Clear
5:35 AM 32.0 °F - 31.1 °F 96% 30.17 in 10.0 mi Calm Calm - N/A   Clear
5:55 AM 31.8 °F - 30.7 °F 96% 30.17 in 10.0 mi Calm Calm - N/A   Clear
5:56 AM 31.8 °F - 30.9 °F 96% 30.17 in 10.0 mi Calm Calm - N/A   Clear
6:15 AM 32.0 °F - 31.1 °F 96% 30.17 in 10.0 mi Calm Calm - N/A   Clear
6:35 AM 31.8 °F - 30.9 °F 96% 30.17 in 10.0 mi Calm Calm - N/A   Clear
6:55 AM 32.0 °F - 31.6 °F 99% 30.17 in 10.0 mi Calm Calm - N/A   Clear
6:56 AM 32.0 °F - 31.6 °F 99% 30.17 in 10.0 mi Calm Calm - N/A   Clear
7:15 AM 32.4 °F - 32.0 °F 99% 30.17 in 10.0 mi Calm Calm - N/A   Clear
7:16 AM 32.4 °F - 32.0 °F 99% 30.17 in 10.0 mi Calm Calm - N/A   Clear
7:35 AM 33.3 °F - 32.2 °F 96% 30.17 in 10.0 mi Calm Calm - N/A   Clear
7:55 AM 34.3 °F - 33.3 °F 96% 30.18 in 10.0 mi Calm Calm - N/A   Clear
7:56 AM 34.3 °F - 33.3 °F 96% 30.18 in 10.0 mi Calm Calm - N/A   Clear
8:15 AM 35.6 °F - 34.2 °F 94% 30.18 in 10.0 mi Calm Calm - N/A   Clear
8:16 AM 35.6 °F - 34.3 °F 95% 30.18 in 10.0 mi Calm Calm - N/A   Clear
8:35 AM 37.4 °F - 35.6 °F 93% 30.18 in 10.0 mi Calm Calm - N/A   Clear
8:36 AM 37.4 °F - 35.6 °F 93% 30.18 in 10.0 mi Calm Calm - N/A   Clear
8:55 AM 39.4 °F - 36.9 °F 91% 30.17 in 10.0 mi Calm Calm - N/A   Clear
9:15 AM 42.3 °F - 38.1 °F 85% 30.17 in 10.0 mi Calm Calm - N/A   Clear
9:16 AM 42.4 °F - 38.1 °F 85% 30.17 in 10.0 mi Calm Calm - N/A   Clear
9:35 AM 47.3 °F - 34.9 °F 62% 30.17 in 10.0 mi SE 5.8 mph - N/A   Clear
9:36 AM 47.5 °F - 34.9 °F 62% 30.17 in 10.0 mi SE 6.9 mph - N/A   Clear
9:55 AM 49.1 °F - 33.4 °F 55% 30.17 in 10.0 mi SE 4.6 mph - N/A   Clear
10:15 AM 50.7 °F - 30.4 °F 46% 30.17 in 10.0 mi ESE 9.2 mph - N/A   Clear
10:35 AM 51.6 °F - 30.6 °F 45% 30.17 in 10.0 mi SE 10.4 mph - N/A   Clear
10:36 AM 51.4 °F - 30.2 °F 44% 30.17 in 10.0 mi SE 8.1 mph - N/A   Clear
10:55 AM 51.8 °F - 30.4 °F 44% 30.17 in 10.0 mi SE 9.2 mph - N/A   Clear
10:56 AM 51.8 °F - 30.2 °F 44% 30.17 in 10.0 mi ESE 6.9 mph - N/A   Scattered Clouds
11:15 AM 52.0 °F - 30.2 °F 43% 30.16 in 10.0 mi ESE 9.2 mph - N/A   Scattered Clouds
11:35 AM 52.5 °F - 30.7 °F 43% 30.16 in 10.0 mi East 5.8 mph - N/A   Scattered Clouds
11:36 AM 52.3 °F - 30.4 °F 43% 30.16 in 10.0 mi East 6.9 mph - N/A   Scattered Clouds
11:55 AM 52.2 °F - 30.4 °F 43% 30.16 in 10.0 mi South 5.8 mph - N/A   Mostly Cloudy
11:56 AM 52.2 °F - 30.7 °F 44% 30.16 in 10.0 mi South 6.9 mph - N/A   Mostly Cloudy
12:15 PM 52.7 °F - 30.9 °F 43% 30.15 in 10.0 mi South 8.1 mph - N/A   Mostly Cloudy
12:35 PM 52.7 °F - 31.1 °F 44% 30.15 in 10.0 mi ESE 8.1 mph - N/A   Mostly Cloudy
12:55 PM 52.9 °F - 31.5 °F 44% 30.15 in 10.0 mi SSE 5.8 mph - N/A   Mostly Cloudy
1:15 PM 53.6 °F - 32.7 °F 45% 30.14 in 10.0 mi ESE 4.6 mph - N/A   Mostly Cloudy
1:16 PM 53.6 °F - 32.2 °F 44% 30.14 in 10.0 mi East 5.8 mph - N/A   Mostly Cloudy
1:35 PM 53.6 °F - 32.9 °F 45% 30.13 in 10.0 mi East 8.1 mph - N/A   Mostly Cloudy
1:36 PM 53.6 °F - 33.1 °F 46% 30.13 in 10.0 mi ESE 8.1 mph - N/A   Mostly Cloudy
1:55 PM 53.6 °F - 32.9 °F 45% 30.12 in 10.0 mi SE 6.9 mph - N/A   Mostly Cloudy
2:15 PM 53.1 °F - 32.4 °F 45% 30.12 in 10.0 mi SE 10.4 mph - N/A   Mostly Cloudy
2:35 PM 52.7 °F - 32.2 °F 46% 30.11 in 10.0 mi ESE 8.1 mph - N/A   Scattered Clouds
2:36 PM 52.7 °F - 32.4 °F 46% 30.11 in 10.0 mi ESE 9.2 mph - N/A   Scattered Clouds
2:55 PM 52.9 °F - 32.5 °F 46% 30.11 in 10.0 mi SSE 8.1 mph - N/A   Scattered Clouds
3:15 PM 52.7 °F - 32.0 °F 45% 30.11 in 10.0 mi SE 6.9 mph - N/A   Mostly Cloudy
3:35 PM 52.7 °F - 32.5 °F 46% 30.10 in 10.0 mi SSE 8.1 mph - N/A   Overcast
3:36 PM 52.7 °F - 32.5 °F 46% 30.10 in 10.0 mi SE 8.1 mph - N/A   Overcast
3:55 PM 52.3 °F - 32.9 °F 48% 30.10 in 10.0 mi East 8.1 mph - N/A   Mostly Cloudy
3:56 PM 52.3 °F - 32.7 °F 47% 30.09 in 10.0 mi East 8.1 mph - N/A   Overcast
4:15 PM 52.3 °F - 33.4 °F 49% 30.09 in 10.0 mi SE 4.6 mph - N/A   Mostly Cloudy
4:16 PM 52.3 °F - 33.8 °F 49% 30.09 in 10.0 mi ESE 6.9 mph - N/A   Mostly Cloudy
4:35 PM 52.2 °F - 32.9 °F 48% 30.08 in 10.0 mi ESE 5.8 mph - N/A   Mostly Cloudy
4:55 PM 51.8 °F - 32.9 °F 49% 30.09 in 10.0 mi SE 5.8 mph - N/A   Overcast
4:56 PM 51.8 °F - 32.9 °F 49% 30.09 in 10.0 mi SE 4.6 mph - N/A   Overcast
5:15 PM 51.8 °F - 33.1 °F 49% 30.07 in 10.0 mi ESE 9.2 mph - N/A   Overcast
5:16 PM 51.8 °F - 33.1 °F 49% 30.07 in 10.0 mi ESE 8.1 mph - N/A   Overcast
5:35 PM 51.4 °F - 33.3 °F 50% 30.07 in 10.0 mi ESE 8.1 mph - N/A   Overcast
5:55 PM 51.3 °F - 33.4 °F 51% 30.07 in 10.0 mi ESE 6.9 mph - N/A   Overcast
6:15 PM 51.3 °F - 33.4 °F 51% 30.06 in 10.0 mi ESE 5.8 mph - N/A   Overcast
6:16 PM 51.3 °F - 33.4 °F 51% 30.07 in 10.0 mi ESE 5.8 mph - N/A   Overcast
6:35 PM 50.9 °F - 33.1 °F 51% 30.06 in 10.0 mi SSE 6.9 mph - N/A   Overcast
6:55 PM 50.9 °F - 32.4 °F 49% 30.06 in 10.0 mi SE 6.9 mph - N/A   Overcast
7:15 PM 50.5 °F - 32.9 °F 51% 30.05 in 10.0 mi ESE 6.9 mph - N/A   Overcast
7:35 PM 50.5 °F - 32.5 °F 50% 30.04 in 10.0 mi ESE 8.1 mph - N/A   Overcast
7:36 PM 50.5 °F - 32.5 °F 50% 30.04 in 10.0 mi ESE 8.1 mph - N/A   Overcast
7:55 PM 50.2 °F - 32.7 °F 51% 30.03 in 10.0 mi ESE 8.1 mph - N/A   Overcast
8:15 PM 50.4 °F - 32.9 °F 51% 30.02 in 10.0 mi East 5.8 mph - N/A   Mostly Cloudy
8:35 PM 49.5 °F - 33.8 °F 55% 30.02 in 10.0 mi East 8.1 mph - N/A   Mostly Cloudy
8:36 PM 49.5 °F - 33.6 °F 54% 30.02 in 10.0 mi East 6.9 mph - N/A   Overcast
8:55 PM 49.1 °F - 33.8 °F 56% 30.02 in 10.0 mi East 5.8 mph - N/A   Overcast
9:15 PM 48.2 °F - 34.0 °F 58% 30.01 in 10.0 mi East 5.8 mph - N/A   Overcast
9:35 PM 48.0 °F - 33.3 °F 57% 30.01 in 10.0 mi East 4.6 mph - N/A   Overcast
9:36 PM 48.0 °F - 33.3 °F 57% 30.01 in 10.0 mi East 4.6 mph - N/A   Overcast
9:55 PM 47.7 °F - 32.0 °F 55% 30.02 in 10.0 mi East 4.6 mph - N/A   Overcast
9:56 PM 47.7 °F - 32.0 °F 55% 30.02 in 10.0 mi East 5.8 mph - N/A   Overcast
10:15 PM 47.3 °F - 30.9 °F 53% 30.01 in 10.0 mi East 5.8 mph - N/A   Overcast
10:16 PM 47.3 °F - 30.9 °F 53% 30.01 in 10.0 mi East 5.8 mph - N/A   Overcast
10:35 PM 47.3 °F - 30.2 °F 52% 30.01 in 10.0 mi ENE 4.6 mph - N/A   Overcast
10:55 PM 46.9 °F - 30.2 °F 52% 30.02 in 10.0 mi ENE 3.5 mph - N/A   Overcast
10:56 PM 46.9 °F - 30.2 °F 52% 30.02 in 10.0 mi Calm Calm - N/A   Overcast
11:15 PM 46.6 °F - 31.8 °F 56% 30.02 in 10.0 mi SSE 3.5 mph - N/A   Overcast
11:16 PM 46.6 °F - 32.0 °F 57% 30.02 in 10.0 mi SSE 4.6 mph - N/A   Overcast
11:35 PM 45.7 °F 43.4 °F 34.7 °F 65% 30.01 in 10.0 mi ESE 4.6 mph - N/A   Overcast
11:55 PM 45.5 °F 44.2 °F 34.7 °F 66% 30.00 in 10.0 mi SSE 3.5 mph - N/A   Overcast
11:56 PM 45.5 °F 43.2 °F 34.5 °F 65% 30.00 in 10.0 mi South 4.6 mph - N/A   Overcast